Oakland, CA

2:48 AM PDT on August 18, 2017 (GMT -0700)
Metro Oakland International

Weather History for KOAK - July, 2014

Change the Weather History Date:

Wednesday, July 9, 2014

  Actual Average Record
Temperature  
Mean Temperature 64 °F 63 °F  
Max Temperature 71 °F 71 °F 95 °F (1959)
Min Temperature 57 °F 55 °F 49 °F (1953)
Degree Days  
Heating Degree Days 1 3  
Month to date heating degree days 20 27  
Since 1 June heating degree days 91 130  
Since 1 July heating degree days 20 27  
Cooling Degree Days 0 1  
Month to date cooling degree days 0 9  
Year to date cooling degree days 64 43  
Since 1 June cooling degree days 20 27  
Growing Degree Days 14 (Base 50)    
Moisture  
Dew Point 55 °F    
Average Humidity 77    
Maximum Humidity 93    
Minimum Humidity 61    
Precipitation  
Precipitation 0.00 in 0.00 in 0.01 in (1974)
Month to date precipitation 0.00 0.01  
Year to date precipitation 7.98 13.23  
Since 1 July precipitation 0.00  
Sea Level Pressure  
Sea Level Pressure 29.91 in    
Wind  
Wind Speed 8 mph (NW)    
Max Wind Speed 20 mph    
Max Gust Speed 23 mph    
Visibility 10 miles    
Events      
T = Trace of Precipitation, MM = Missing Value Source: NWS Daily Summary

Daily Weather History Graph

Daily Weather History Graph

Search for Another Location

Airport or City:

Trip Planner

Search our weather history database for the weather conditions in past years. The results will help you decide how hot, cold, wet, or windy it might be!

Date:

Astronomy

Jul. 09, 2014 Rise Set
Actual Time 5:55 AM PDT 8:32 PM PDT
Civil Twilight 5:24 AM PDT 9:03 PM PDT
Nautical Twilight 4:46 AM PDT 9:41 PM PDT
Astronomical Twilight 4:03 AM PDT 10:24 PM PDT
Moon 5:50 PM PDT (7/9) 3:16 AM PDT (7/9)
Length of Visible Light 15h 39m
Length of Day
14h 37m
Waxing Gibbous, 90% of the Moon is Illuminated
Jul 9
Waxing Gibbous
Jul 12
Full
Jul 18
Last Quarter
Jul 26
New
Aug 3
First Quarter

Hourly Weather History & Observations

Time (PDT) Temp. Dew Point Humidity Pressure Visibility Wind Dir Wind Speed Gust Speed Precip Events Conditions
12:53 AM 57.0 °F 54.0 °F 89% 29.93 in 10.0 mi NNW 6.9 mph - N/A   Overcast
1:53 AM 57.0 °F 54.0 °F 89% 29.91 in 10.0 mi NNW 5.8 mph - N/A   Overcast
2:53 AM 57.9 °F 54.0 °F 87% 29.91 in 10.0 mi North 4.6 mph - N/A   Overcast
3:53 AM 57.9 °F 54.0 °F 87% 29.91 in 10.0 mi NNW 3.5 mph - N/A   Overcast
4:53 AM 57.9 °F 55.0 °F 90% 29.91 in 10.0 mi North 6.9 mph - N/A   Overcast
5:53 AM 59.0 °F 55.0 °F 87% 29.92 in 10.0 mi North 4.6 mph - N/A   Overcast
6:53 AM 59.0 °F 55.0 °F 87% 29.94 in 10.0 mi WNW 3.5 mph - N/A   Overcast
7:53 AM 59.0 °F 55.0 °F 87% 29.95 in 10.0 mi Calm Calm - N/A   Overcast
8:53 AM 60.1 °F 55.0 °F 83% 29.96 in 10.0 mi WNW 4.6 mph - N/A   Overcast
9:53 AM 63.0 °F 55.9 °F 78% 29.96 in 10.0 mi NW 5.8 mph - N/A   Overcast
10:53 AM 64.0 °F 55.9 °F 75% 29.95 in 10.0 mi WNW 5.8 mph - N/A   Partly Cloudy
11:53 AM 70.0 °F 55.9 °F 61% 29.94 in 10.0 mi NNW 9.2 mph - N/A   Partly Cloudy
12:53 PM 70.0 °F 55.0 °F 59% 29.94 in 10.0 mi NNW 10.4 mph - N/A   Partly Cloudy
1:53 PM 70.0 °F 55.0 °F 59% 29.92 in 10.0 mi WNW 16.1 mph - N/A   Partly Cloudy
2:53 PM 70.0 °F 55.0 °F 59% 29.90 in 10.0 mi NW 17.3 mph - N/A   Partly Cloudy
3:53 PM 69.1 °F 55.0 °F 61% 29.89 in 10.0 mi WNW 19.6 mph - N/A   Partly Cloudy
4:53 PM 66.2 °F 55.4 °F 68% 29.88 in 10.0 mi NW 16.1 mph - N/A   Partly Cloudy
5:53 PM 66.9 °F 55.9 °F 68% 29.87 in 10.0 mi NW 15.0 mph - N/A   Partly Cloudy
6:53 PM 66.0 °F 55.0 °F 68% 29.87 in 10.0 mi West 13.8 mph - N/A   Partly Cloudy
7:53 PM 63.0 °F 54.0 °F 72% 29.88 in 10.0 mi NW 6.9 mph - N/A   Partly Cloudy
8:53 PM 60.1 °F 54.0 °F 80% 29.89 in 10.0 mi WNW 9.2 mph - N/A   Partly Cloudy
9:53 PM 59.0 °F 54.0 °F 83% 29.90 in 10.0 mi WNW 5.8 mph - N/A   Partly Cloudy
10:38 PM 59.0 °F 53.6 °F 82% 29.91 in 10.0 mi NW 5.8 mph - N/A   Mostly Cloudy
10:53 PM 59.0 °F 54.0 °F 83% 29.91 in 10.0 mi NW 3.5 mph - N/A   Mostly Cloudy
11:53 PM 60.1 °F 54.0 °F 80% 29.91 in 10.0 mi West 4.6 mph - N/A   Overcast